[TLELIST] Archives

 

[TLELIST] Current TLEs

June 7th 2025 PDT

HST 1 20580U 90037B 25158.16573218 .00004357 00000-0 16034-3 0 9994 2 20580 28.4670 112.8375 0002396 343.9806 16.0712 15.25218922731414 ISS (ZARYA) 1 25544U 98067A 25157.94842702 .00007781 00000-0 14396-3 0 9995 2 25544 51.6366 357.8157 0001641 203.6246 156.4667 15.50042058513576 CXO 1 25867U 99040B 25158.85815059 .00000415 00000-0 00000+0 0 9991 2 25867 49.3141 130.1099 8435467 309.4168 0.0193 0.37807738 27064 ...Continue Reading

[TLELIST] Current TLEs

June 6th 2025 PDT

HST 1 20580U 90037B 25156.59533618 .00004600 00000-0 16981-3 0 9991 2 20580 28.4668 123.4815 0002332 325.2676 34.7766 15.25205890731175 ISS (ZARYA) 1 25544U 98067A 25157.43265213 .00007769 00000-0 14379-3 0 9992 2 25544 51.6369 0.3711 0001685 200.3764 159.7158 15.50032533513491 CXO 1 25867U 99040B 25158.85815059 .00000415 00000-0 00000+0 0 9991 2 25867 49.3141 130.1099 8435467 309.4168 0.0193 0.37807738 27064 ...Continue Reading

[TLELIST] Current TLEs

June 5th 2025 PDT

HST 1 20580U 90037B 25155.22122889 .00004899 00000-0 18145-3 0 9998 2 20580 28.4669 132.7950 0002299 308.7272 51.3117 15.25191800730965 ISS (ZARYA) 1 25544U 98067A 25156.41218638 .00010954 00000-0 19949-3 0 9996 2 25544 51.6392 5.4243 0001910 184.4067 237.6437 15.50021068513332 CXO 1 25867U 99040B 25158.85815059 .00000415 00000-0 00000+0 0 9991 2 25867 49.3141 130.1099 8435467 309.4168 0.0193 0.37807738 27064 ...Continue Reading

[TLELIST] Current TLEs

June 4th 2025 PDT

HST 1 20580U 90037B 25154.37058473 .00008288 00000-0 31259-3 0 9997 2 20580 28.4667 138.5602 0002278 298.7347 61.3018 15.25185271730572 ISS (ZARYA) 1 25544U 98067A 25155.13777713 .00015482 00000-0 27871-3 0 9992 2 25544 51.6375 11.7378 0001897 183.5792 322.5485 15.50001302513135 CXO 1 25867U 99040B 25156.21351796 .00000375 00000-0 00000-0 0 9998 2 25867 49.2892 130.1907 8440951 309.4096 359.9647 0.37809731 15891 ...Continue Reading

[TLELIST] Current TLEs

June 4th 2025 PDT

HST 1 20580U 90037B 25154.37058473 .00008288 00000-0 31259-3 0 9997 2 20580 28.4667 138.5602 0002278 298.7347 61.3018 15.25185271730572 ISS (ZARYA) 1 25544U 98067A 25155.13777713 .00015482 00000-0 27871-3 0 9992 2 25544 51.6375 11.7378 0001897 183.5792 322.5485 15.50001302513135 CXO 1 25867U 99040B 25156.21351796 .00000375 00000-0 00000-0 0 9998 2 25867 49.2892 130.1907 8440951 309.4096 359.9647 0.37809731 15891 ...Continue Reading

[TLELIST] Current TLEs

June 3rd 2025 PDT

HST 1 20580U 90037B 25154.23971604 .00008257 00000-0 31141-3 0 9998 2 20580 28.4667 139.4471 0002277 296.4839 63.5522 15.25182988730819 ISS (ZARYA) 1 25544U 98067A 25154.47922031 .00014981 00000-0 27017-3 0 9998 2 25544 51.6376 14.9986 0001916 179.3188 249.6581 15.49979623513033 CXO 1 25867U 99040B 25156.21313390 .00000375 00000-0 00000+0 0 9995 2 25867 49.2892 130.1908 8440951 309.4096 359.9128 0.37809588 27057 ...Continue Reading

[TLELIST] Current TLEs

June 2nd 2025 PDT

HST 1 20580U 90037B 25153.19275953 .00006902 00000-0 25914-3 0 9992 2 20580 28.4665 146.5411 0002237 285.4624 74.5723 15.25164608730652 ISS (ZARYA) 1 25544U 98067A 25153.04842943 .00015478 00000-0 27928-3 0 9996 2 25544 51.6368 22.0925 0001818 180.6477 179.4510 15.49934407512812 CXO 1 25867U 99040B 25156.21313390 .00000375 00000-0 00000+0 0 9995 2 25867 49.2892 130.1908 8440951 309.4096 359.9128 0.37809588 27057 ...Continue Reading

[TLELIST] Current TLEs

June 1st 2025 PDT

HST 1 20580U 90037B 25151.68774017 .00004641 00000-0 17172-3 0 9994 2 20580 28.4662 156.7403 0002255 265.3764 94.6573 15.25142508730162 ISS (ZARYA) 1 25544U 98067A 25152.08127633 .00011817 00000-0 21544-3 0 9992 2 25544 51.6366 26.8839 0001840 175.8771 184.2233 15.49902677512667 CXO 1 25867U 99040B 25153.56825561 .00000405 00000-0 00000-0 0 9993 2 25867 49.2477 130.2915 8447311 309.3834 359.8599 0.37807541 15887 ...Continue Reading

[TLELIST] Current TLEs

June 1st 2025 PDT

HST 1 20580U 90037B 25151.68774017 .00004641 00000-0 17172-3 0 9994 2 20580 28.4662 156.7403 0002255 265.3764 94.6573 15.25142508730162 ISS (ZARYA) 1 25544U 98067A 25152.08127633 .00011817 00000-0 21544-3 0 9992 2 25544 51.6366 26.8839 0001840 175.8771 184.2233 15.49902677512667 CXO 1 25867U 99040B 25153.56825561 .00000405 00000-0 00000-0 0 9993 2 25867 49.2477 130.2915 8447311 309.3834 359.8599 0.37807541 15887 ...Continue Reading

[TLELIST] Current TLEs

May 31st 2025 PDT

HST 1 20580U 90037B 25151.22968728 .00004569 00000-0 16895-3 0 9998 2 20580 28.4662 159.8447 0002273 258.9910 101.0429 15.25137597730351 ISS (ZARYA) 1 25544U 98067A 25151.11410582 .00011386 00000-0 20806-3 0 9994 2 25544 51.6367 31.6753 0001886 170.5276 189.5748 15.49878952512510 CXO 1 25867U 99040B 25153.56825561 .00000405 00000-0 00000-0 0 9993 2 25867 49.2477 130.2915 8447311 309.3834 359.8599 0.37807541 15887 ...Continue Reading
  • This mailing list is a public mailing list - anyone may join or leave, at any time.
  • This mailing list is announce-only.

International Space Station (ISS) / Hubble Space Telescope (HST) / Chandra X-Ray Observatory Orbital Data via EMAIL

Privacy Policy:

Private list